TimeMDT,TemperatureF,Dew PointF,Humidity,Sea Level PressureIn,VisibilityMPH,Wind Direction,Wind SpeedMPH,Gust SpeedMPH,PrecipitationIn,Events,Conditions,WindDirDegrees,DateUTC
12:53 AM,57.9,33.1,39,29.78,10.0,ESE,9.2,-,N/A,,Overcast,110,2013-10-13 06:53:00
1:53 AM,54.0,36.0,51,29.79,10.0,West,5.8,-,N/A,,Overcast,260,2013-10-13 07:53:00
2:53 AM,52.0,37.0,57,29.81,10.0,WNW,8.1,-,N/A,,Overcast,290,2013-10-13 08:53:00
3:53 AM,52.0,39.9,63,29.80,10.0,Calm,Calm,-,0.00,,Overcast,0,2013-10-13 09:53:00
4:53 AM,46.9,42.1,83,29.83,8.0,WNW,6.9,-,0.00,Rain,Light Rain,290,2013-10-13 10:53:00
5:53 AM,45.0,41.0,86,29.84,10.0,NNW,3.5,-,0.00,,Clear,340,2013-10-13 11:53:00
6:53 AM,44.1,39.9,85,29.86,10.0,Calm,Calm,-,N/A,,Partly Cloudy,0,2013-10-13 12:53:00
7:53 AM,45.0,39.9,82,29.87,10.0,Calm,Calm,-,N/A,,Scattered Clouds,0,2013-10-13 13:53:00
8:53 AM,45.0,42.1,90,29.89,10.0,Calm,Calm,-,N/A,,Overcast,0,2013-10-13 14:53:00
9:53 AM,48.9,42.1,77,29.89,10.0,South,6.9,-,N/A,,Mostly Cloudy,170,2013-10-13 15:53:00
10:53 AM,48.9,43.0,80,29.88,10.0,NNW,5.8,-,0.00,,Overcast,330,2013-10-13 16:53:00
11:53 AM,51.1,41.0,68,29.89,10.0,WNW,5.8,-,N/A,,Mostly Cloudy,300,2013-10-13 17:53:00
12:44 PM,51.8,41.0,67,29.97,10.0,West,4.6,-,N/A,,Overcast,280,2013-10-13 18:44:00
12:53 PM,51.1,39.9,66,29.89,10.0,WNW,5.8,-,N/A,,Overcast,290,2013-10-13 18:53:00
1:21 PM,51.8,41.0,67,29.97,10.0,West,8.1,-,N/A,,Overcast,280,2013-10-13 19:21:00
1:53 PM,51.1,41.0,68,29.89,10.0,NW,3.5,-,0.00,,Overcast,320,2013-10-13 19:53:00
2:03 PM,51.8,41.0,67,29.96,10.0,Calm,Calm,-,N/A,,Overcast,0,2013-10-13 20:03:00
2:53 PM,52.0,42.1,69,29.88,10.0,WNW,3.5,-,0.00,,Overcast,300,2013-10-13 20:53:00
3:53 PM,51.1,41.0,68,29.89,10.0,West,3.5,-,N/A,,Overcast,280,2013-10-13 21:53:00
4:40 PM,48.2,39.2,71,29.99,10.0,West,10.4,-,0.01,Rain,Light Rain,260,2013-10-13 22:40:00
4:53 PM,48.9,39.0,69,29.94,6.0,WSW,6.9,-,0.01,Rain,Rain,240,2013-10-13 22:53:00
5:53 PM,48.9,42.1,77,29.94,10.0,SSE,4.6,-,0.02,,Overcast,160,2013-10-13 23:53:00
6:02 PM,48.2,42.8,82,30.00,10.0,South,5.8,-,N/A,,Overcast,170,2013-10-14 00:02:00
6:43 PM,48.2,42.8,82,30.00,10.0,SSE,5.8,-,N/A,,Overcast,160,2013-10-14 00:43:00
6:53 PM,48.0,42.1,80,29.96,8.0,South,4.6,-,0.00,Rain,Light Rain,190,2013-10-14 00:53:00
7:16 PM,46.4,42.8,87,30.02,4.0,NW,9.2,-,0.04,Rain,Rain,320,2013-10-14 01:16:00
7:53 PM,46.0,42.1,86,29.98,10.0,North,4.6,-,0.05,Rain,Light Rain,10,2013-10-14 01:53:00
8:53 PM,45.0,41.0,86,29.99,10.0,WNW,5.8,-,0.00,,Overcast,300,2013-10-14 02:53:00
9:08 PM,44.6,41.0,87,30.03,10.0,NW,5.8,-,N/A,,Overcast,320,2013-10-14 03:08:00
9:53 PM,45.0,42.1,90,29.99,10.0,NNW,3.5,-,0.01,Rain,Light Rain,330,2013-10-14 03:53:00
10:00 PM,44.6,42.8,93,30.04,10.0,NW,3.5,-,0.00,Rain,Light Rain,310,2013-10-14 04:00:00
10:09 PM,44.6,42.8,93,30.04,10.0,NW,3.5,-,0.00,Rain,Light Rain,310,2013-10-14 04:09:00
10:53 PM,45.0,42.1,90,30.00,10.0,Calm,Calm,-,0.01,Rain,Light Rain,0,2013-10-14 04:53:00
11:02 PM,44.6,42.8,93,30.05,10.0,Calm,Calm,-,0.00,Rain,Light Rain,0,2013-10-14 05:02:00
11:34 PM,44.6,41.0,87,30.05,9.0,NNW,6.9,-,0.02,Rain,Light Rain,330,2013-10-14 05:34:00
11:39 PM,44.6,41.0,87,30.05,10.0,NNW,8.1,-,0.02,Rain,Light Rain,340,2013-10-14 05:39:00
11:53 PM,44.1,41.0,89,30.01,9.0,North,5.8,-,0.03,Rain,Light Rain,350,2013-10-14 05:53:00